Regional Weather Roundup
Issued by NWS

Home | Current Version | Previous Version | Text Only | Print | Product List | Glossary On
Versions: 1 2 3 4 5 6 7 8 9 10 11 12 13 14 15 16 17 18 19 20 21 22 23 24 25 26 27 28 29 30 31 32 33 34 35 36 37 38 39 40 41 42 43 44 45 46 47 48 49 50
601
ASUS45 KABQ 061110
RWRNM
NEW MEXICO REGIONAL WEATHER ROUNDUP
NATIONAL WEATHER SERVICE ALBUQUERQUE NM
400 AM MST FRI DEC 06 2019

NOTE: "FAIR" MEANS FEW OR NO CLOUDS BELOW 12,000 FEET AGL WITH NO
       SIGNIFICANT WEATHER OR OBSTRUCTIONS TO VISION.

      THIS PRODUCT IS RELEASED AS TWO VERSIONS.  ONE VERSION NEAR
      THE TOP OF THE HOUR CONTAINING PRELIMINARY DATA FROM ALBUQUERQUE
      AND OTHER STATIONS.  A FINAL VERSION WITH ADDITIONAL DATA IS
      ISSUED ABOUT 10 MINUTES AFTER THE HOUR.

NMZ201-203-204-210>218-061200-
NORTHWEST PLATEAU/NORTHCENTRAL MOUNTAINS

CITY           SKY/WX    TMP DP  RH WIND       PRES   REMARKS
FARMINGTON     FAIR      29  26  89 E7        30.33R WCI  22
LOS ALAMOS     FAIR      32  28  86 N3        30.33F
SANTA FE       FAIR      30  27  88 N9        30.32S WCI  22
TAOS           FAIR      22  20  92 CALM      30.35S
ANGEL FIRE     CLOUDY    15  14  94 CALM      30.35R

$$
NMZ202-205>209-241-402-403-061200-
WESTCENTRAL MOUNTAINS/SOUTHWEST MOUNTAINS

CITY           SKY/WX    TMP DP  RH WIND       PRES   REMARKS
GALLUP         FAIR      28  25  88 NE3       30.32S
GRANTS         FAIR      24  24  97 CALM      30.35S
SILVER CITY    FAIR      30  28  93 N8        30.27S WCI  22

$$
NMZ407-409-411-412-061200-
SOUTHERN DESERTS

CITY           SKY/WX    TMP DP  RH WIND       PRES   REMARKS
DEMING         FAIR      45  34  65 E10       30.26S
LAS CRUCES     FAIR      46  33  61 N9        30.27S
HOLLOMAN AFB   FAIR      33  29  85 N6        30.25S WCI  28
ALAMOGORDO     FAIR      34  32  93 SE6       30.26S WCI  29
T OR C         FAIR      39  32  76 NW7       30.29R WCI  34

$$
NMZ219>223-061200-
CENTRAL VALLEYS/CENTRAL HIGHLANDS

CITY           SKY/WX    TMP DP  RH WIND       PRES   REMARKS
ALBUQUERQUE    MOCLDY    35  28  75 N8        30.32F WCI  29
DOUBLE EAGLE   FAIR      30  28  93 N3        30.32S
MORIARTY ARPT  FAIR      27  27 100 NW5       30.34S WCI  22
CLINES CORNERS FAIR      30  23  75 CALM      30.33F
BELEN          FAIR      31  31 100 N5        30.33S WCI  26
SOCORRO        FAIR      34  31  88 NW8       30.32S WCI  27

$$
NMZ224>226-239-240-061200-
SOUTHCENTRAL MOUNTAINS

CITY           SKY/WX    TMP DP  RH WIND       PRES   REMARKS
RUIDOSO        FAIR      34  23  64 W8        30.34S WCI  27

$$
NMZ227>231-061200-
NORTHEAST HIGHLANDS/NORTHEAST PLAINS

CITY           SKY/WX    TMP DP  RH WIND       PRES   REMARKS
LAS VEGAS      FAIR      25  23  92 S6        30.33R WCI  18
RATON          FAIR      27  23  85 SW5       30.29R WCI  22
CLAYTON        FAIR      31  28  89 NW10      30.28S WCI  22

$$
NMZ232>237-061200-
EASTCENTRAL PLAINS

CITY           SKY/WX    TMP DP  RH WIND       PRES   REMARKS
SANTA ROSA     FAIR      31  29  92 CALM      30.32S
TUCUMCARI      FAIR      32  27  81 N9        30.31R WCI  24
CANNON AFB     FAIR      34  31  91 N14       30.30R WCI  24
CLOVIS AIRPORT FAIR      32  31  96 N10       30.30R WCI  24

$$
NMZ028-029-033-238-061200-
SOUTHEAST PLAINS

CITY           SKY/WX    TMP DP  RH WIND       PRES   REMARKS
ROSWELL        FAIR      42  33  70 N8        30.30S
ARTESIA        FAIR      39  36  87 NW12      30.33R WCI  32
CARLSBAD       FAIR      43  33  68 NW9       30.28R
HOBBS          FAIR      39  34  81 N10       30.29R WCI  32


$$




USA.gov is the U.S. government's official web portal to all federal, state and local government web resources and services.